User: anonymous   Login
Location: CNYAC Observatory
(43.2150°N, 74.9500°W)
Time: 00:10:48
(UTC-04:00)
Language:

Cosmos 1300 Rocket - Orbit

View from above orbital plane
View from above orbital plane
View from above satellite
View from above satellite

Ground track
Ground track

The orbit data is extracted from the following two-line orbital elements,

1 12786U 81082B   15124.10109569  .00000265  00000-0  28624-4 0  9996
2 12786 082.4883 338.1197 0016250 295.4032 064.5501 14.84444428819811
Epoch (UTC): 04 May 2015 02:25:34
Eccentricity: 0.0016250
inclination: 82.4883°
perigee height: 604 km
apogee height: 626 km
right ascension of ascending node: 338.1197°
argument of perigee: 295.4032°
revolutions per day: 14.84444428
mean anomaly at epoch: 64.5501°
orbit number at epoch: 81981

The dashed part of the orbit path shows where the satellite is in the earth's shadow,  

DLR